| time (UTC) | temp F | wind direction | speed MPH | gust MPH | rain 1hr in | rain 24hr in | rain mn in | humidity % | barometer mb |
| 20260504045904 | 52 | 66 | 2.0 | 3.0 | 0.00 | 0.00 | 0.00 | 91 | 1026.9 |
| 20260504044905 | 52 | 63 | 2.0 | 3.0 | 0.00 | 0.00 | 0.00 | 91 | 1026.9 |
| 20260504043904 | 52 | 68 | 2.0 | 3.0 | 0.00 | 0.00 | 0.00 | 90 | 1026.9 |
| 20260504041906 | 53 | 77 | 2.0 | 5.0 | 0.00 | 0.00 | 0.00 | 88 | 1026.9 |
| 20260504040904 | 54 | 60 | 2.0 | 3.0 | 0.00 | 0.00 | 0.00 | 86 | 1026.8 |
| 20260504035904 | 55 | 61 | 1.0 | 3.0 | 0.00 | 0.00 | 0.00 | 84 | 1026.7 |
| 20260504034905 | 56 | 51 | 2.0 | 5.0 | 0.00 | 0.00 | 0.00 | 81 | 1026.7 |
| 20260504033905 | 55 | 50 | 2.0 | 3.0 | 0.00 | 0.00 | 0.00 | 82 | 1026.6 |
| 20260504032904 | 55 | 44 | 3.0 | 5.0 | 0.00 | 0.00 | 0.00 | 82 | 1026.6 |
| 20260504031904 | 57 | 49 | 2.0 | 3.0 | 0.00 | 0.00 | 0.00 | 78 | 1026.5 |
| 20260504030905 | 56 | 57 | 2.0 | 3.0 | 0.00 | 0.00 | 0.00 | 80 | 1026.5 |
| 20260504025905 | 58 | 43 | 2.0 | 3.0 | 0.00 | 0.00 | 0.00 | 76 | 1026.6 |
| 20260504023905 | 56 | 40 | 3.0 | 5.0 | 0.00 | 0.00 | 0.00 | 80 | 1026.7 |
| 20260504022904 | 56 | 61 | 2.0 | 3.0 | 0.00 | 0.00 | 0.00 | 79 | 1026.6 |
| 20260504021905 | 57 | 49 | 2.0 | 3.0 | 0.00 | 0.00 | 0.00 | 79 | 1026.6 |
| 20260504015905 | 56 | 71 | 1.0 | 2.0 | 0.00 | 0.00 | 0.00 | 81 | 1026.9 |
| 20260504014910 | 55 | 57 | 2.0 | 3.0 | 0.00 | 0.00 | 0.00 | 81 | 1026.8 |
| 20260504013905 | 56 | 60 | 2.0 | 3.0 | 0.00 | 0.00 | 0.00 | 81 | 1027.1 |
| 20260504012905 | 56 | 52 | 2.0 | 3.0 | 0.00 | 0.00 | 0.00 | 81 | 1027.0 |
| 20260504011905 | 57 | 54 | 2.0 | 3.0 | 0.00 | 0.00 | 0.00 | 79 | 1027.3 |
| 20260504010904 | 57 | 42 | 1.0 | 3.0 | 0.00 | 0.00 | 0.00 | 79 | 1027.4 |
| 20260504005904 | 57 | 63 | 2.0 | 2.0 | 0.00 | 0.00 | 0.00 | 82 | 1027.5 |
| 20260504004904 | 55 | 73 | 1.0 | 3.0 | 0.00 | 0.00 | 0.00 | 85 | 1028.0 |
| 20260504003904 | 55 | 45 | 3.0 | 3.0 | 0.00 | 0.00 | 0.00 | 84 | 1028.1 |
| 20260504002905 | 54 | 52 | 2.0 | 3.0 | 0.00 | 0.00 | 0.00 | 86 | 1028.3 |
| 20260504001905 | 54 | 72 | 2.0 | 2.0 | 0.00 | 0.00 | 0.00 | 89 | 1028.5 |
| 20260504000904 | 53 | 79 | 1.0 | 2.0 | 0.00 | 0.00 | 0.00 | 93 | 1028.6 |
| 20260503235905 | 52 | 67 | 1.0 | 2.0 | 0.00 | 0.00 | 0.00 | 94 | 1028.5 |
| 20260503234905 | 52 | 71 | 1.0 | 2.0 | 0.00 | 0.00 | 0.00 | 98 | 1028.9 |
| 20260503233905 | 51 | 70 | 1.0 | 2.0 | 0.00 | 0.00 | 0.00 | 99 | 1029.0 |
| 20260503232904 | 51 | 79 | 1.0 | 3.0 | 0.00 | 0.00 | 0.00 | 99 | 1028.9 |
| 20260503231905 | 50 | 62 | 2.0 | 2.0 | 0.00 | 0.00 | 0.00 | 99 | 1029.1 |
| 20260503230905 | 50 | 67 | 1.0 | 2.0 | 0.00 | 0.00 | 0.00 | 99 | 1029.3 |
| 20260503225905 | 49 | 71 | 1.0 | 3.0 | 0.00 | 0.00 | 0.00 | 99 | 1029.2 |
| 20260503224905 | 49 | 65 | 1.0 | 2.0 | 0.00 | 0.00 | 0.00 | 99 | 1029.3 |
| 20260503223904 | 48 | 72 | 1.0 | 2.0 | 0.00 | 0.00 | 0.00 | 99 | 1029.3 |
| 20260503221905 | 47 | 67 | 2.0 | 2.0 | 0.00 | 0.00 | 0.00 | 99 | 1029.4 |
| 20260503215905 | 45 | 78 | 1.0 | 2.0 | 0.00 | 0.00 | 0.00 | 99 | 1029.3 |
| 20260503214904 | 44 | 74 | 2.0 | 2.0 | 0.00 | 0.00 | 0.00 | 99 | 1029.3 |
| 20260503213904 | 43 | 70 | 2.0 | 2.0 | 0.00 | 0.00 | 0.00 | 98 | 1029.7 |
| 20260503212904 | 42 | 80 | 1.0 | 2.0 | 0.00 | 0.00 | 0.00 | 98 | 1029.4 |
| 20260503211905 | 41 | 80 | 2.0 | 2.0 | 0.00 | 0.00 | 0.00 | 98 | 1029.4 |
| 20260503205905 | 39 | 78 | 2.0 | 2.0 | 0.00 | 0.00 | 0.00 | 99 | 1029.5 |
| 20260503204905 | 38 | 82 | 2.0 | 2.0 | 0.00 | 0.00 | 0.00 | 99 | 1029.3 |
| 20260503202906 | 38 | 89 | 1.0 | 3.0 | 0.00 | 0.00 | 0.00 | 99 | 1029.2 |
| 20260503201906 | 37 | 73 | 2.0 | 2.0 | 0.00 | 0.00 | 0.00 | 99 | 1029.3 |
| 20260503200923 | 36 | 80 | 2.0 | 2.0 | 0.00 | 0.00 | 0.00 | 99 | 1029.1 |
| 20260503195904 | 36 | 78 | 2.0 | 2.0 | 0.00 | 0.00 | 0.00 | 99 | 1028.9 |
| 20260503072905 | 44 | 74 | 2.0 | 2.0 | 0.00 | 0.00 | 0.00 | 93 | 1028.7 |